www.pogodaiklimat.ru

Погода и климат >> Архив погоды >> Мексика >> La Paz


ПОГОДА в La Paz

  • Прогноз погоды в La Paz
  • Монитор погоды в La Paz
  • Климат города

АРХИВ ПОГОДЫ в La Paz

Время (UTC), дата Ветер
(напр.,м/с)
 
Видим.   Явления Облачность Т
(С)
Тd
(С)
f
(%)
Тe
(С)
Тes
(С)
Комфортность P
(гПа)
Po
(гПа)
Тmin
(С)
Tmax
(С)
R
(мм)
R24
(мм)
S
(см)
03 15.10 З 2 2000 м 1/0 2000 м
[Ac trans]
+31.0 +26.5 77 +47 +47 опасность
перегрева
1012.2 1010.2
06 15.10 Ю 2 2000 м 4/0 2000 м
[Ac trans]
+28.6 +24.2 77 +40 +40 очень
душно
1013.9 1011.9 +24.0 +36.2
09 15.10 Ю 2 2000 м 3/0 2000 м
[Ac trans]
+27.3 +24.2 83 +38 +38 очень
душно
1013.0 1011.0
12 15.10 Ю 1 2000 м ясно +25.6 +23.0 86 +34 +34 очень
душно
1013.0 1011.0 +25.2 +36.2
15 15.10 ЮВ 1 25 км ясно +27.4 +23.8 81 +38 +40 очень
душно
1014.5 1012.4
18 15.10 С 3 30 км 1/0
[Ci fib]
+33.8 +22.5 52 +43 +54 опасность
перегрева
1014.9 1012.8 +25.0 +33.8
21 15.10 СЗ 5 30 км 3/0
[Ci fib]
+33.2 +24.6 61 +46 +52 опасность
перегрева
1013.1 1011.1
00 16.10 СЗ 3 30 км 4/0
[Ci fib]
+32.6 +24.2 61 +45 +45 опасность
перегрева
1011.7 1009.7 +25.0 +34.5
03 16.10 СВ 1 2000 м 1/0
[Ci fib]
+30.2 +22.4 63 +39 +39 очень
душно
1013.2 1011.1
06 16.10 ЮВ 1 2000 м ясно +28.9 +21.9 66 +37 +37 очень
душно
1013.7 1011.7 +25.0 +34.5
09 16.10 штиль 0 2000 м ясно +27.2 +22.5 76 +36 +36 очень
душно
1013.2 1011.1
12 16.10 Ю 1 2000 м ясно +24.8 +21.8 83 +32 +32 очень
душно
1012.5 1010.5 +24.2 +34.5
15 16.10 СВ 1 25 км ясно +28.3 +20.8 64 +35 +38 очень
душно
1013.9 1011.9
18 16.10 СЗ 4 30 км ясно +33.1 +23.7 58 +44 +53 опасность
перегрева
1013.8 1011.8 +24.0 +33.5
21 16.10 СЗ 5 30 км ясно +33.8 +24.8 59 +47 +53 опасность
перегрева
1011.9 1009.8
00 17.10 СВ 3 30 км 1/0 2000 м
[Ac trans]
+32.4 +24.7 64 +45 +46 опасность
перегрева
1011.6 1009.6 +24.0 +34.7
03 17.10 СВ 2 2000 м ясно +29.7 +24.7 75 +42 +42 опасность
перегрева
1013.0 1011.0
06 17.10 Ю 1 2000 м ясно +28.2 +24.1 78 +39 +39 очень
душно
1013.5 1011.5 +24.0 +34.7
09 17.10 Ю 1 2000 м ясно +26.6 +23.0 81 +36 +36 очень
душно
1013.0 1011.0
12 17.10 С 2 2000 м ясно +27.9 +24.2 80 +39 +39 очень
душно
1012.4 1010.3 +26.1 +34.7
15 17.10 С 3 30 км ясно +29.0 +25.7 82 +43 +44 опасность
перегрева
1013.6 1011.5
18 17.10 СЗ 2 30 км ясно +32.9 +24.7 62 +46 +59 опасность
перегрева
1013.9 1011.8 +26.1 +32.9
21 17.10 СЗ 4 30 км ясно +35.2 +23.5 51 +46 +54 опасность
перегрева
1011.5 1009.5
00 18.10 С 3 30 км 3/0 2000 м
[Ac und Cs]
+34.2 +23.2 53 +45 +46 опасность
перегрева
1011.1 1009.1 +26.1 +35.8
03 18.10 СЗ 1 2000 м 1/0
[Ci fib]
+30.5 +24.1 69 +42 +42 опасность
перегрева
1012.3 1010.3
06 18.10 Ю 2 2000 м 1/0
[Ci fib]
+29.0 +23.5 72 +39 +39 очень
душно
1013.1 1011.1 +26.1 +35.8
09 18.10 ЮВ 2 2000 м ясно +28.0 +22.7 73 +37 +37 очень
душно
1012.2 1010.2
12 18.10 Ю 1 2000 м ясно +25.8 +21.4 77 +33 +33 очень
душно
1011.8 1009.8 +25.5 +35.8
15 18.10 Ю 1 25 км ясно +26.5 +21.9 76 +34 +36 очень
душно
1013.3 1011.2
18 18.10 СЗ 1 30 км ясно +36.4 +21.8 43 +44 +59 опасность
перегрева
1013.3 1011.3 +23.8 +37.0
21 18.10 С 2 30 км ясно +38.8 +20.5 35 +45 +57 опасность
перегрева
1010.7 1008.6
00 19.10 З 3 30 км 1/0
[Ci fib]
+38.6 +22.2 39 +47 +48 опасность
перегрева
1009.7 1007.7 +23.8 +39.8
03 19.10 Ю 3 2000 м ясно +31.6 +22.5 59 +41 +41 опасность
перегрева
1011.1 1009.1
06 19.10 Ю 2 2000 м ясно +29.0 +22.0 66 +37 +37 очень
душно
1011.1 1009.0 +23.8 +39.8
09 19.10 Ю 3 2000 м ясно +26.6 +20.9 71 +33 +33 очень
душно
1010.3 1008.3
12 19.10 Ю 3 2000 м ясно +25.9 +21.2 75 +33 +33 очень
душно
1009.8 1007.8 +25.6 +39.8
15 19.10 Ю 3 25 км ясно +27.8 +22.8 74 +37 +38 очень
душно
1011.1 1009.0
21 19.10 С 3 30 км ясно +39.6 +18.7 30 +44 +53 опасность
перегрева
1008.6 1006.5
00 20.10 СЗ 1 30 км ясно +39.1 +18.4 30 +43 +44 опасность
перегрева
1007.7 1005.7 +25.2 +40.0
03 20.10 Ю 4 2000 м ясно +32.2 +22.1 55 +41 +41 опасность
перегрева
1009.6 1007.6
06 20.10 Ю 4 2000 м ясно +27.8 +23.7 78 +38 +38 очень
душно
1010.5 1008.4 +25.2 +40.0
09 20.10 Ю 3 2000 м ясно +27.0 +21.8 73 +35 +35 очень
душно
1010.4 1008.4
12 20.10 Ю 2 2000 м ясно +26.0 +21.2 75 +33 +33 очень
душно
1010.8 1008.7 +25.6 +40.0
15 20.10 Ю 3 25 км ясно +28.0 +20.0 62 +34 +36 очень
душно
1011.7 1009.7
18 20.10 Ю 2 30 км ясно +35.7 +19.2 38 +41 +53 опасность
перегрева
1011.6 1009.6 +24.8 +35.7
21 20.10 С 4 30 км ясно +37.5 +19.2 34 +42 +50 опасность
перегрева
1009.2 1007.2
00 21.10 С 3 30 км 3/0
[Ci fib]
+36.4 +19.9 38 +42 +43 опасность
перегрева
1008.9 1006.9 +24.8 +39.5
03 21.10 ЮЗ 1 2000 м ясно +32.0 +22.3 57 +41 +41 опасность
перегрева
1010.2 1008.2
06 21.10 Ю 2 2000 м ясно +27.8 +21.6 69 +36 +36 очень
душно
1011.2 1009.1 +24.8 +39.5
09 21.10 Ю 2 2000 м ясно +25.0 +20.1 74 +31 +31 очень
душно
1010.9 1008.8
12 21.10 Ю 3 2000 м ясно +22.8 +18.5 77 +29 +29 очень
душно
1011.3 1009.3 +22.4 +39.5
15 21.10 Ю 3 25 км ясно +24.2 +19.1 73 +29 +31 душно 1012.5 1010.4
18 21.10 Ю 2 30 км 1/0
[Ci fib]
+31.4 +19.3 49 +37 +49 очень
душно
1012.3 1010.3 +22.0 +32.0
21 21.10 С 4 30 км ясно +33.0 +18.7 43 +38 +46 очень
душно
1010.4 1008.4

 

Местоположение метеостанции La Paz (Мексика): широта 24.17 долгота -110.30 высота над уровнем моря 18 м.

В архиве по умолчанию представлена погода в La Paz за последнюю неделю. Архивные данные за месяц целиком и за предыдущие месяцы, начиная с января 2011 года, Вы можете получить, выбрав интересующий диапазон дат из раскрывающегося списка и нажав кнопку "Ввод!".

Внимание! Время в таблицах - всемирное. Для получения местного времени необходимо прибавить поправку, которая в La Paz равна -6 ч.

Смотрите также архив погоды в соседних городах и на ближайших метеорологических станциях:

Погода в Ciudad Constitucion (Мексика) (166 км)
Погода в Loreto (Мексика) (229 км)
Погода в Culiacan (Мексика) (302 км)
Погода в Choix (Мексика) (354 км)
Погода в Ciudad Obregon (Мексика) (361 км)
Погода в Santa Rosalia (Мексика) (397 км)
Погода в Colonia Juan Carras-Co (Мексика) (412 км)
Погода в Guaymas Upper Air Site (Мексика) (421 км)
Погода в Empalme (Мексика) (422 км)
Погода в Tepehuanes (Мексика) (481 км)

Пояснения к столбцам:

Ветер - указаны скорость ветра в м/с - средняя за 10 мин, порывы в срок и между сроками (в фигурных скобках) и направление, откуда дует ветер: С - северный, СВ - северо-восточный, В - восточный, ЮВ - юго-восточный, Ю - южный, ЮЗ - юго-западный, З - западный, СЗ - северо-западный.
Видимость - горизонтальная дальность видимости в метрах или километрах. При видимости от 1 до 10 км при отсутствии осадков обычно наблюдается дымка, при ухудшении видимости до 1 км и менее - туман. В сухую погоду видимость может ухудшаться дымом, пылью или мглою.
Явления - указаны атмосферные явления, наблюдавшиеся в срок или в последний час перед сроком; фигурными скобками обозначены явления, наблюдавшиеся между сроками (за 1-3 часа до срока); квадратными скобками обозначены град или гололедные отложения с указанием их диаметра в мм.
Облачность - указаны через наклонную черту общая и нижняя облачность в баллах и высота нижней границы облаков в метрах; квадратными скобками обозначены формы облаков: Ci - перистые, Cs - перисто-слоистые, Cc - перисто-кучевые, Ac - высококучевые, As - высокослоистые, Sc - слоисто-кучевые, Ns - слоисто-дождевые, Cu - кучевые, Cb - кучево-дождевые. Подробнее классификацию облаков см. в Атласе облаков (PDF).
T - Температура воздуха - температура, измеренная на высоте 2 м над землей.
Td - Температура точки росы - температура, при понижении до которой содержащийся в воздухе водяной пар достигнет насыщения.
f - Относительная влажность воздуха - влажноcть воздуха, измеренная на высоте 2 м над землей.
Te - Эффективная температура - температура, которую ощущает одетый по сезону человек в тени. Характеристика душности погоды. При расчете учитывается влияние влажности воздуха и скорости ветра на теплоощущения человека.
Tes - Эффективная температура на солнце - температура, которую ощущает человек, с поправкой на солнечный нагрев. Характеристика знойности погоды. Зависит от высоты солнца над горизонтом, облачности и скорости ветра. Ночью, в пасмурную погоду, а также при ветре 12 м/с и более поправка равна нулю.
P - Атмосферное давление - приведенное к уровню моря атмосферное давление.
Po - Атмосферное давление - измеренное на уровне метеостанции атмосферное давление.
Tmin - Минимальная температура - минимум температуры воздуха на высоте 2 м над землей.
Tmax - Максимальная температура - максимум температуры воздуха на высоте 2 м над землей.
R - Количество осадков - Количество выпавших осадков за период времени, мм. При наведении курсора мыши на число - период времени, за который выпало указанное количество осадков.
R24 - Количество осадков - Количество выпавших осадков за 24 часа, мм.
S - Снежный покров - Высота снежного покрова, см. При наведении курсора мыши на число - состояние снежного покрова и степень покрытия местности в баллах.